Weather reports worldwide

Advertisment
Brownsville/Int., United States of America (72250): temperature & dewpoint: 15.02.2019 19:00:00 - 21.02.2019 19:00:00 (CST)Brownsville/Int., United States of America (72250): wind speed: 15.02.2019 19:00:00 - 21.02.2019 19:00:00 (CST)Brownsville/Int., United States of America (72250): wind direction: 15.02.2019 19:00:00 - 21.02.2019 19:00:00 (CST)Brownsville/Int., United States of America (72250): reduced air pressure: 15.02.2019 19:00:00 - 21.02.2019 19:00:00 (CST)Brownsville/Int., United States of America (72250): visibility: 15.02.2019 19:00:00 - 21.02.2019 19:00:00 (CST)Brownsville/Int., United States of America (72250): precipitation: 15.02.2019 19:00:00 - 21.02.2019 19:00:00 (CST)
Date & Time tt [°C] td [°C] ff [km/h] ff [kn] dd ppp [hPa] vv [km] rr [mm]
21.02.2019 19:00:00 17,2 16,7 11 6 NE 1009,4 16 -
21.02.2019 18:00:00 17,8 16,7 16 9 NE 1008,9 16 0,0
21.02.2019 17:00:00 19,4 16,7 22 12 NE 1008,8 16 -
21.02.2019 16:00:00 20,0 16,7 22 12 NE 1008,6 16 -
21.02.2019 15:00:00 22,8 16,7 5 3 SSE 1008,5 16 -
21.02.2019 14:00:00 21,1 16,1 5 3 - 1009,5 16 -
21.02.2019 13:00:00 18,9 15,6 5 3 NNE 1010,9 16 -
21.02.2019 12:00:00 18,3 15,0 8 4 W 1012,0 16 0,0
21.02.2019 11:00:00 17,8 15,0 0 0 N 1012,1 16 -
21.02.2019 10:00:00 16,7 14,4 9 5 SW 1012,4 16 -
21.02.2019 09:00:00 16,7 14,4 8 4 NW 1012,1 16 -
21.02.2019 08:00:00 16,7 14,4 5 3 N 1011,1 16 -
21.02.2019 07:00:00 16,1 13,9 5 3 NNE 1010,5 16 -
21.02.2019 06:00:00 15,6 13,3 5 3 NNW 1010,8 16 0,0
21.02.2019 05:00:00 15,6 13,9 8 4 N 1010,8 16 -
21.02.2019 04:00:00 14,4 13,9 5 3 N 1011,1 16 -
21.02.2019 03:00:00 14,4 12,8 11 6 NNW 1012,0 16 -
21.02.2019 02:00:00 15,0 11,1 11 6 NW 1012,8 16 -
21.02.2019 01:00:00 15,0 11,1 11 6 W 1013,2 16 -
21.02.2019 00:00:00 15,0 11,7 8 4 WNW 1013,4 16 0,0
20.02.2019 23:00:00 15,0 11,1 9 5 WNW 1013,7 16 -
20.02.2019 22:00:00 14,4 11,1 5 3 WNW 1013,4 16 -
20.02.2019 21:00:00 14,4 10,6 0 0 N 1013,2 16 -
20.02.2019 20:00:00 14,4 10,6 11 6 N 1013,0 16 -
20.02.2019 19:00:00 14,4 10,0 11 6 N 1012,7 16 -
20.02.2019 18:00:00 15,0 8,3 13 7 NNE 1012,3 16 0,0
20.02.2019 17:00:00 16,7 7,8 13 7 N 1012,5 16 -
20.02.2019 16:00:00 16,7 8,3 21 11 N 1013,0 16 -
20.02.2019 15:00:00 15,0 10,0 16 9 N 1013,5 16 -
20.02.2019 14:00:00 14,4 10,6 16 9 NNW 1014,6 16 -
20.02.2019 13:00:00 13,9 10,0 18 10 NNW 1015,9 16 -
20.02.2019 12:00:00 12,8 9,4 21 11 NNW 1017,0 16 -
20.02.2019 11:00:00 11,7 9,4 16 9 NNW 1017,9 16 -
20.02.2019 10:00:00 10,6 8,9 15 8 NW 1017,3 16 -
20.02.2019 09:00:00 10,6 9,4 18 10 NW 1016,5 16 -
20.02.2019 08:00:00 10,0 9,4 29 16 NW 1015,4 16 -
20.02.2019 07:00:00 10,0 9,4 18 10 NNW 1014,7 16 -
20.02.2019 06:00:00 9,4 9,4 22 12 NNW 1013,6 16 0,3
20.02.2019 05:00:00 10,0 10,0 16 9 N 1012,5 16 0,0
20.02.2019 04:00:00 10,6 10,6 24 13 NNW 1012,1 16 0,3
20.02.2019 03:00:00 11,7 11,7 24 13 NNW 1011,4 13 0,0
20.02.2019 02:00:00 12,8 12,8 18 10 N 1010,7 13 0,0
20.02.2019 01:00:00 13,3 13,3 18 10 NNW 1010,3 16 -
20.02.2019 00:00:00 14,4 14,4 18 10 N 1010,2 13 0,0
19.02.2019 23:00:00 14,4 14,4 15 8 N 1009,5 10 0,3
19.02.2019 22:00:00 14,4 14,4 13 7 N 1009,3 10 0,0
19.02.2019 21:00:00 14,4 14,4 11 6 N 1009,5 10 -
19.02.2019 20:00:00 14,4 14,4 11 6 N 1008,8 6 -
19.02.2019 19:00:00 15,0 14,4 9 5 N 1007,9 6 -
19.02.2019 18:00:00 15,6 15,0 13 7 N 1007,3 3,2 0,0
19.02.2019 17:00:00 16,7 15,6 15 8 NNE 1007,4 16 -
19.02.2019 16:00:00 17,2 16,7 9 5 NNE 1007,4 16 -
19.02.2019 15:00:00 18,9 17,8 5 3 NNE 1008,1 16 -
19.02.2019 14:00:00 18,9 17,2 9 5 NNW 1009,4 4,8 -
19.02.2019 13:00:00 17,8 17,2 9 5 NW 1010,9 10 -
19.02.2019 12:00:00 17,2 17,2 9 5 WNW 1011,9 16 0,0
19.02.2019 11:00:00 16,7 16,7 9 5 W 1012,8 0,8 -
19.02.2019 10:00:00 16,7 16,7 15 8 WNW 1013,0 0,8 -
19.02.2019 09:00:00 16,7 16,7 15 8 NW 1012,1 0,8 -
19.02.2019 08:00:00 17,2 17,2 9 5 WNW 1012,0 1,6 -
19.02.2019 07:00:00 16,7 16,7 9 5 N 1011,9 16 -
19.02.2019 06:00:00 16,7 16,7 13 7 NNW 1012,0 16 0,3
19.02.2019 05:00:00 16,7 16,7 13 7 NNW 1012,5 13 0,0
19.02.2019 04:00:00 16,7 16,7 15 8 NNW 1013,2 13 0,5
19.02.2019 03:00:00 16,1 16,1 13 7 NNW 1014,0 13 0,3
19.02.2019 02:00:00 16,1 16,1 16 9 NNW 1014,9 15 0,0
19.02.2019 01:00:00 15,0 15,0 11 6 NNW 1015,5 11 0,8
19.02.2019 00:00:00 14,4 14,4 13 7 NW 1016,5 10 0,5
18.02.2019 23:00:00 14,4 14,4 13 7 NW 1016,9 10 0,3
18.02.2019 22:00:00 13,9 13,9 18 10 NNW 1017,1 10 0,5
18.02.2019 21:00:00 13,9 13,9 13 7 NNW 1017,1 10 0,0
18.02.2019 20:00:00 14,4 13,9 15 8 NNW 1016,7 16 0,0
18.02.2019 19:00:00 15,0 13,9 22 12 N 1016,0 8 0,0
18.02.2019 18:00:00 15,6 13,9 22 12 N 1015,9 8 0,0
18.02.2019 17:00:00 16,7 13,9 24 13 N 1015,9 16 -
18.02.2019 16:00:00 17,2 13,3 22 12 N 1016,1 16 -
18.02.2019 15:00:00 17,2 13,9 21 11 N 1016,6 16 -
18.02.2019 14:00:00 17,2 14,4 18 10 N 1017,4 16 -
18.02.2019 13:00:00 16,7 15,0 21 11 N 1018,3 6 -
18.02.2019 12:00:00 15,6 15,0 21 11 NNW 1019,0 2,4 0,0
18.02.2019 11:00:00 15,6 15,0 18 10 NNW 1019,2 2,4 0,0
18.02.2019 10:00:00 15,6 13,9 15 8 N 1019,0 4,0 0,3
18.02.2019 09:00:00 16,1 13,3 18 10 N 1017,7 16 0,0
18.02.2019 08:00:00 16,1 13,3 24 13 N 1016,5 16 -
18.02.2019 07:00:00 15,6 12,8 24 13 NNE 1015,1 16 -
18.02.2019 06:00:00 16,1 12,8 24 13 NNE 1014,4 16 0,0
18.02.2019 05:00:00 15,6 12,8 24 13 N 1013,9 16 -
18.02.2019 04:00:00 16,1 12,2 21 11 N 1013,7 16 -
18.02.2019 03:00:00 16,7 12,8 18 10 N 1013,7 16 -
18.02.2019 02:00:00 17,2 12,8 21 11 N 1014,0 16 -
18.02.2019 01:00:00 17,2 13,3 22 12 N 1013,9 16 -
18.02.2019 00:00:00 17,8 14,4 21 11 N 1013,7 16 0,0
17.02.2019 23:00:00 17,8 15,0 24 13 N 1013,0 16 -
17.02.2019 22:00:00 17,8 15,6 22 12 N 1012,2 16 -
17.02.2019 21:00:00 17,8 15,6 22 12 N 1011,7 16 -
17.02.2019 20:00:00 17,8 15,6 24 13 N 1010,6 16 -
17.02.2019 19:00:00 18,3 16,1 15 8 NNE 1009,3 16 -
17.02.2019 18:00:00 18,9 16,7 16 9 N 1008,0 16 -
17.02.2019 17:00:00 20,0 17,8 22 12 N 1007,0 16 -
17.02.2019 16:00:00 21,7 18,9 26 14 NNE 1006,7 16 -
17.02.2019 15:00:00 21,1 18,9 22 12 NNE 1006,6 16 -
17.02.2019 14:00:00 21,1 20,0 24 13 N 1006,7 16 -
17.02.2019 13:00:00 20,6 20,0 21 11 N 1007,4 16 0,0
17.02.2019 12:00:00 23,9 23,3 11 6 NW 1007,3 6 0,0
17.02.2019 11:00:00 23,3 22,8 9 5 W 1007,2 16 0,0
17.02.2019 10:00:00 23,3 23,3 8 4 - 1006,6 2,4 -
17.02.2019 09:00:00 22,2 22,2 0 0 N 1005,7 4,8 -
17.02.2019 08:00:00 21,7 21,7 0 0 N 1004,7 4,8 -
17.02.2019 07:00:00 21,1 21,1 5 3 SE 1003,7 10 -
17.02.2019 06:00:00 21,7 21,7 8 4 E 1003,1 16 0,0
17.02.2019 05:00:00 22,2 21,7 9 5 E 1002,3 16 -
17.02.2019 04:00:00 22,2 22,2 15 8 SE 1002,0 16 -
17.02.2019 03:00:00 22,2 21,7 21 11 ESE 1002,1 16 -
17.02.2019 02:00:00 22,8 22,2 16 9 SE 1002,7 16 -
17.02.2019 01:00:00 23,3 22,2 15 8 SSE 1003,1 16 -
17.02.2019 00:00:00 23,3 22,2 18 10 S 1003,2 16 0,0
16.02.2019 23:00:00 23,3 22,2 21 11 SSE 1003,2 16 -
16.02.2019 22:00:00 23,9 22,2 18 10 S 1003,3 16 -
16.02.2019 21:00:00 23,3 22,2 21 11 S 1002,8 6 -
16.02.2019 20:00:00 23,9 22,2 28 15 SSE 1002,1 6 -
16.02.2019 19:00:00 23,9 22,2 18 10 SE 1002,2 6 -
16.02.2019 18:00:00 23,9 22,2 21 11 ESE 1001,8 4,0 0,0
16.02.2019 17:00:00 24,4 21,7 18 10 SE 1002,1 16 -
16.02.2019 16:00:00 25,6 21,7 26 14 SE 1002,7 16 -
16.02.2019 15:00:00 27,2 21,7 22 12 SSE 1003,3 16 -
16.02.2019 14:00:00 28,9 21,1 24 13 SE 1003,4 16 -
16.02.2019 13:00:00 27,8 21,7 28 15 SSE 1004,6 16 -
16.02.2019 12:00:00 26,1 21,1 31 17 SSE 1005,7 16 -
16.02.2019 11:00:00 24,4 21,1 34 18 S 1006,4 16 -
16.02.2019 10:00:00 22,8 21,1 24 13 S 1007,0 16 -
16.02.2019 09:00:00 22,2 20,6 18 10 S 1007,4 16 -
16.02.2019 08:00:00 21,1 21,1 18 10 S 1007,0 10 0,0
16.02.2019 07:00:00 20,6 20,6 18 10 S 1006,8 8 -
16.02.2019 06:00:00 21,1 20,6 15 8 S 1006,7 10 0,0
16.02.2019 05:00:00 21,1 20,0 16 9 S 1006,7 16 -
16.02.2019 04:00:00 22,2 21,1 15 8 S 1007,1 16 -
16.02.2019 03:00:00 22,8 21,1 21 11 S 1007,7 16 -
16.02.2019 02:00:00 22,8 21,1 16 9 S 1008,1 16 -
16.02.2019 01:00:00 22,2 21,1 18 10 S 1008,3 16 -
16.02.2019 00:00:00 22,2 21,7 18 10 S 1008,6 16 0,0
15.02.2019 23:00:00 21,7 21,1 22 12 S 1008,6 15 -
15.02.2019 22:00:00 21,1 21,1 15 8 SSE 1008,8 16 -
15.02.2019 21:00:00 22,2 21,7 18 10 SSE 1008,6 15 -
15.02.2019 20:00:00 22,2 21,1 18 10 SSE 1008,1 16 -
15.02.2019 19:00:00 22,8 21,1 22 12 SSE 1007,5 16 -

tt = temperature
td = dewpoint
ff = wind speed
dd = wind direction
ppp = reduced air pressure
vv = visibility
rr = precipitation

Next stations